This is the latest recevied weather packets stored in our database for station/object LU3MCV-13. If no packets are shown the sender has not sent any weather packets the latest 10 day(s).
| Time | Temp. | Humidity | Pressure | Rain* | Wind** | Luminosity | Snow |
|---|---|---|---|---|---|---|---|
| 1777818451 | 16.11° C | 16% | 932.8 hPa | - | - | - | - |
| 1777817550 | 15° C | 16% | 933 hPa | - | - | - | - |
| 1777816651 | 13.89° C | 20% | 933 hPa | - | - | - | - |
| 1777815751 | 12.78° C | 20% | 933.4 hPa | - | - | - | - |
| 1777814851 | 12.78° C | 20% | 933.3 hPa | - | - | - | - |
| 1777813951 | 12.22° C | 21% | 933.4 hPa | - | - | - | - |
| 1777813051 | 12.22° C | 21% | 933.6 hPa | - | - | - | - |
| 1777812151 | 11.11° C | 22% | 933.7 hPa | - | - | - | - |
| 1777811250 | 10° C | 23% | 933.8 hPa | - | - | - | - |
| 1777810350 | 8.89° C | 25% | 933.6 hPa | - | - | - | - |
| 1777809451 | 8.89° C | 25% | 933.5 hPa | - | - | - | - |
| 1777808551 | 8.89° C | 25% | 933.3 hPa | - | - | - | - |
| 1777807650 | 7.78° C | 25% | 933.4 hPa | - | - | - | - |
| 1777806750 | 7.78° C | 25% | 933.4 hPa | - | - | - | - |
| 1777805850 | 7.78° C | 25% | 933.7 hPa | - | - | - | - |
| 1777804950 | 8.89° C | 25% | 934 hPa | - | - | - | - |
| 1777804050 | 8.89° C | 25% | 933.5 hPa | - | - | - | - |
| 1777804042 | 8.89° C | 25% | 933.6 hPa | - | - | - | - |
| 1777803142 | 8.89° C | 25% | 933.3 hPa | - | - | - | - |
| 1777802242 | 8.89° C | 25% | 933.5 hPa | - | - | - | - |
| 1777801342 | 8.89° C | 25% | 933.8 hPa | - | - | - | - |
| 1777800442 | 8.89° C | 25% | 934 hPa | - | - | - | - |
| 1777799542 | 8.89° C | 24% | 934.5 hPa | - | - | - | - |
| 1777798642 | 8.89° C | 23% | 934 hPa | - | - | - | - |
| 1777797742 | 8.89° C | 23% | 934.4 hPa | - | - | - | - |
* Rain since midnight (hover to see other rain measurements)
** Current wind speed in m/s (hover to see current wind gust speed)